WAT3182 KLGB-KSLI

Flight info

Callsign WAT3182
Flight time 0h -22m
Altitude 1500
Route SLI
Aircraft C172/L-SFG/C

Departure

Time 2026-05-07 16:33
Airport Long Beach International Airport (KLGB)

Arrival

Time 2026-05-07 16:11
Airport Los Alamitos Army Air Field (KSLI)
Time Latitude Longitude Altitude Speed Heading
2026-05-07 16:11 33.81232 -118.15317 42 ft 0 kts 270°
2026-05-07 16:29 33.81265 -118.15318 41 ft 10 kts 359°
2026-05-07 16:29 33.81306 -118.15283 40 ft 5 kts 81°
2026-05-07 16:29 33.81307 -118.15266 40 ft 0 kts 88°
2026-05-07 16:29 33.81308 -118.15239 40 ft 7 kts 89°
2026-05-07 16:30 33.81307 -118.15142 40 ft 14 kts 89°
2026-05-07 16:30 33.81305 -118.15025 38 ft 11 kts 90°
2026-05-07 16:30 33.81308 -118.14927 37 ft 9 kts 89°
2026-05-07 16:30 33.81329 -118.14861 37 ft 6 kts
2026-05-07 16:31 33.81346 -118.14860 37 ft 0 kts
2026-05-07 16:32 33.81380 -118.14861 37 ft 7 kts 333°
2026-05-07 16:32 33.81391 -118.15051 38 ft 51 kts 268°
2026-05-07 16:33 33.81392 -118.15626 134 ft 75 kts 268°
2026-05-07 16:33 33.81390 -118.16240 367 ft 73 kts 265°
2026-05-07 16:33 33.81361 -118.16902 497 ft 82 kts 263°
2026-05-07 16:33 33.81288 -118.17580 682 ft 81 kts 245°
2026-05-07 16:34 33.80842 -118.18034 857 ft 88 kts 192°
2026-05-07 16:34 33.80271 -118.17888 1113 ft 85 kts 138°
2026-05-07 16:34 33.80017 -118.17277 1349 ft 84 kts 93°
2026-05-07 16:34 33.79992 -118.16542 1468 ft 96 kts 84°
2026-05-07 16:35 33.80022 -118.15739 1471 ft 93 kts 85°
2026-05-07 16:35 33.80055 -118.14984 1470 ft 89 kts 84°
2026-05-07 16:35 33.80084 -118.14243 1473 ft 89 kts 86°
2026-05-07 16:35 33.80081 -118.13496 1472 ft 90 kts 91°
2026-05-07 16:36 33.80029 -118.12724 1473 ft 92 kts 92°
2026-05-07 16:36 33.79973 -118.11950 1472 ft 93 kts 92°
2026-05-07 16:36 33.79913 -118.11185 1403 ft 93 kts 93°
2026-05-07 16:36 33.79852 -118.10410 1272 ft 94 kts 93°
2026-05-07 16:37 33.79791 -118.09631 1155 ft 94 kts 93°
2026-05-07 16:37 33.79751 -118.08853 1029 ft 93 kts 86°
2026-05-07 16:37 33.79848 -118.08050 982 ft 99 kts 76°
2026-05-07 16:37 33.80016 -118.07262 971 ft 95 kts 72°
2026-05-07 16:38 33.80252 -118.06529 970 ft 91 kts 64°
2026-05-07 16:38 33.80539 -118.05856 970 ft 89 kts 60°
2026-05-07 16:38 33.80831 -118.05208 965 ft 87 kts 62°
2026-05-07 16:38 33.80661 -118.04518 757 ft 96 kts 133°
2026-05-07 16:39 33.80159 -118.04152 566 ft 85 kts 175°
2026-05-07 16:39 33.79623 -118.04355 278 ft 80 kts 226°
2026-05-07 16:39 33.79313 -118.04871 40 ft 65 kts 237°
2026-05-07 16:39 33.79139 -118.05170 28 ft 8 kts 241°
2026-05-07 16:40 33.79171 -118.05204 28 ft 4 kts 299°
2026-05-07 16:40 33.79165 -118.05318 28 ft 23 kts 270°
2026-05-07 16:40 33.79174 -118.05473 28 ft 7 kts 315°
2026-05-07 16:40 33.79239 -118.05489 28 ft 5 kts 359°
2026-05-07 16:41 33.79254 -118.05489 28 ft 0 kts 360°